Le nostre stazioni meteo in Italia

Pubblicità
Il mio iltempo24.it
Grottaglie, Italia (16324): Temperatura & dewpoint: 15.04.2019 09:00:00 - 21.04.2019 09:00:00 (CEST)Grottaglie, Italia (16324): velocità del vento: 15.04.2019 09:00:00 - 21.04.2019 09:00:00 (CEST)Grottaglie, Italia (16324): direzione del vento: 15.04.2019 09:00:00 - 21.04.2019 09:00:00 (CEST)Grottaglie, Italia (16324): visibility: 15.04.2019 09:00:00 - 21.04.2019 09:00:00 (CEST)
Data & Tempo tt [°C] td [°C] ff [km/h] ff [kn] dd vv [km]
21.04.2019 09:00:00 - - - - - -
21.04.2019 08:00:00 13,0 11,0 0 0 N 10
21.04.2019 07:00:00 - - - - - -
21.04.2019 06:00:00 - - - - - -
21.04.2019 05:00:00 - - - - - -
21.04.2019 04:00:00 - - - - - -
21.04.2019 03:00:00 - - - - - -
21.04.2019 02:00:00 - - - - - -
21.04.2019 01:00:00 - - - - - -
21.04.2019 00:00:00 - - - - - -
20.04.2019 23:00:00 - - - - - -
20.04.2019 22:00:00 - - - - - -
20.04.2019 21:00:00 - - - - - -
20.04.2019 20:00:00 15,0 7,0 11 6 NNE 10
20.04.2019 19:00:00 19,0 6,0 16 9 N 10
20.04.2019 18:00:00 21,0 7,0 18 10 NNE 10
20.04.2019 17:00:00 22,0 6,0 15 8 NE 10
20.04.2019 16:00:00 22,0 8,0 15 8 NE 10
20.04.2019 15:00:00 22,0 7,0 11 6 N 10
20.04.2019 14:00:00 22,0 6,0 15 8 NNE 10
20.04.2019 13:00:00 21,0 7,0 16 9 NE 10
20.04.2019 12:00:00 21,0 7,0 15 8 ENE 10
20.04.2019 11:00:00 20,0 11,0 15 8 NE 10
20.04.2019 10:00:00 19,0 10,0 11 6 N 10
20.04.2019 09:00:00 17,0 10,0 9 5 N 10
20.04.2019 08:00:00 15,0 9,0 8 4 OSO 10
20.04.2019 07:00:00 - - - - - -
20.04.2019 06:00:00 - - - - - -
20.04.2019 05:00:00 - - - - - -
20.04.2019 04:00:00 - - - - - -
20.04.2019 03:00:00 - - - - - -
20.04.2019 02:00:00 - - - - - -
20.04.2019 01:00:00 - - - - - -
20.04.2019 00:00:00 - - - - - -
19.04.2019 23:00:00 - - - - - -
19.04.2019 22:00:00 - - - - - -
19.04.2019 21:00:00 - - - - - -
19.04.2019 20:00:00 16,0 6,0 5 3 NNO 10
19.04.2019 19:00:00 17,0 6,0 13 7 N 10
19.04.2019 18:00:00 19,0 5,0 15 8 NE 10
19.04.2019 17:00:00 19,0 7,0 15 8 ENE 10
19.04.2019 16:00:00 19,0 8,0 21 11 NE 10
19.04.2019 15:00:00 19,0 7,0 22 12 NNE 10
19.04.2019 14:00:00 20,0 7,0 21 11 NNE 10
19.04.2019 13:00:00 20,0 7,0 18 10 NNE 10
19.04.2019 12:00:00 - - 16 9 NE 10
19.04.2019 11:00:00 18,0 11,0 16 9 NNE 10
19.04.2019 10:00:00 18,0 9,0 18 10 NE 10
19.04.2019 09:00:00 16,0 10,0 16 9 NNE 10
19.04.2019 08:00:00 15,0 11,0 15 8 N 10
19.04.2019 07:00:00 - - - - - -
19.04.2019 06:00:00 - - - - - -
19.04.2019 05:00:00 - - - - - -
19.04.2019 04:00:00 - - - - - -
19.04.2019 03:00:00 - - - - - -
19.04.2019 02:00:00 - - - - - -
19.04.2019 01:00:00 - - - - - -
19.04.2019 00:00:00 - - - - - -
18.04.2019 23:00:00 - - - - - -
18.04.2019 22:00:00 - - - - - -
18.04.2019 21:00:00 - - - - - -
18.04.2019 20:00:00 15,0 6,0 8 4 NNE 10
18.04.2019 19:00:00 17,0 6,0 16 9 NNE 10
18.04.2019 18:00:00 18,0 5,0 18 10 NNE 10
18.04.2019 17:00:00 19,0 8,0 15 8 NE 10
18.04.2019 16:00:00 19,0 7,0 18 10 NE 10
18.04.2019 15:00:00 19,0 10,0 22 12 NE 10
18.04.2019 14:00:00 20,0 11,0 18 10 NE 10
18.04.2019 13:00:00 20,0 11,0 11 6 NNE 10
18.04.2019 12:00:00 19,0 9,0 11 6 NNO 10
18.04.2019 11:00:00 18,0 9,0 15 8 N 10
18.04.2019 10:00:00 18,0 8,0 4 2 - 10
18.04.2019 09:00:00 14,0 6,0 5 3 ONO 10
18.04.2019 08:00:00 12,0 7,0 4 2 - 10
18.04.2019 07:00:00 - - - - - -
18.04.2019 06:00:00 - - - - - -
18.04.2019 05:00:00 - - - - - -
18.04.2019 04:00:00 - - - - - -
18.04.2019 03:00:00 - - - - - -
18.04.2019 02:00:00 - - - - - -
18.04.2019 01:00:00 - - - - - -
18.04.2019 00:00:00 - - - - - -
17.04.2019 23:00:00 - - - - - -
17.04.2019 22:00:00 - - - - - -
17.04.2019 21:00:00 - - - - - -
17.04.2019 20:00:00 15,0 11,0 - - - 10
17.04.2019 19:00:00 16,0 11,0 11 6 OSO 10
17.04.2019 18:00:00 18,0 8,0 0 0 N 10
17.04.2019 17:00:00 18,0 9,0 11 6 NNE 10
17.04.2019 16:00:00 18,0 10,0 8 4 ENE 10
17.04.2019 15:00:00 18,0 10,0 16 9 SE 10
17.04.2019 14:00:00 19,0 9,0 9 5 ONO 10
17.04.2019 13:00:00 18,0 9,0 11 6 O 10
17.04.2019 12:00:00 18,0 10,0 11 6 OSO 10
17.04.2019 11:00:00 17,0 9,0 5 3 SO 10
17.04.2019 10:00:00 16,0 10,0 5 3 OSO 10
17.04.2019 09:00:00 14,0 11,0 8 4 OSO 10
17.04.2019 08:00:00 13,0 10,0 0 0 N 10
17.04.2019 07:00:00 - - - - - -
17.04.2019 06:00:00 - - - - - -
17.04.2019 05:00:00 - - - - - -
17.04.2019 04:00:00 - - - - - -
17.04.2019 03:00:00 - - - - - -
17.04.2019 02:00:00 - - - - - -
17.04.2019 01:00:00 - - - - - -
17.04.2019 00:00:00 - - - - - -
16.04.2019 23:00:00 - - - - - -
16.04.2019 22:00:00 - - - - - -
16.04.2019 21:00:00 13,0 11,0 0 0 N 10
16.04.2019 20:00:00 15,0 10,0 0 0 N 10
16.04.2019 19:00:00 16,0 10,0 13 7 N 10
16.04.2019 18:00:00 18,0 10,0 8 4 E 10
16.04.2019 17:00:00 18,0 10,0 13 7 ESE 10
16.04.2019 16:00:00 16,0 10,0 11 6 ESE 10
16.04.2019 15:00:00 17,0 11,0 11 6 SSE 10
16.04.2019 14:00:00 19,0 9,0 8 4 NO 10
16.04.2019 13:00:00 19,0 9,0 9 5 N 10
16.04.2019 12:00:00 18,0 10,0 15 8 N 10
16.04.2019 11:00:00 17,0 10,0 5 3 N 10
16.04.2019 10:00:00 16,0 9,0 15 8 N 10
16.04.2019 09:00:00 16,0 10,0 9 5 N 10
16.04.2019 08:00:00 11,0 9,0 4 2 - 10
16.04.2019 07:00:00 - - - - - -
16.04.2019 06:00:00 - - - - - -
16.04.2019 05:00:00 - - - - - -
16.04.2019 04:00:00 - - - - - -
16.04.2019 03:00:00 - - - - - -
16.04.2019 02:00:00 - - - - - -
16.04.2019 01:00:00 - - - - - -
16.04.2019 00:00:00 - - - - - -
15.04.2019 23:00:00 - - - - - -
15.04.2019 22:00:00 - - - - - -
15.04.2019 21:00:00 13,0 10,0 18 10 N 10
15.04.2019 20:00:00 13,0 10,0 13 7 N 10
15.04.2019 19:00:00 15,0 9,0 22 12 NNE 10
15.04.2019 18:00:00 16,0 11,0 22 12 NNE 10
15.04.2019 17:00:00 16,0 9,0 22 12 NE 10
15.04.2019 16:00:00 16,0 10,0 22 12 NNE 10
15.04.2019 15:00:00 16,0 10,0 21 11 NE 10
15.04.2019 14:00:00 15,0 11,0 15 8 ENE 10
15.04.2019 13:00:00 14,0 10,0 11 6 ENE 10
15.04.2019 12:00:00 11,0 10,0 21 11 ESE 6
15.04.2019 11:00:00 13,0 9,0 11 6 ENE 10
15.04.2019 10:00:00 13,0 10,0 5 3 NE 10
15.04.2019 09:00:00 11,0 10,0 4 2 - 10

tt = Temperatura
td = dewpoint
ff = velocità del vento
dd = direzione del vento
vv = visibility

Stazioni seguenti

WeatherPro
AMSI
MeteoEarth